Wind_Speed
20 19 19 18 18 20 21 21 20 19 20 19 18 18 19 19 19 18 17 16 16 17 17 16 17 17 17 17 16 17 17 17 17 17 18 18 18 18 18 17 18 18 18 18
21 21 20 20 19 19 20 21 21 20 20 20 19 19 20 21 20 19 19 18 17 17 17 17 17 18 18 18 18 18 18 18 18 18 18 18 18 18 18 18 18 18 18 18
22 22 21 20 21 21 21 22 22 22 21 20 20 21 21 21 20 19 19 19 19 19 18 18 19 18 19 19 19 19 20 19 19 19 19 19 19 19 19 19 19 18 18 18
24 24 24 21 22 23 23 22 23 23 23 23 23 22 22 22 21 20 20 20 21 21 21 20 20 20 20 20 21 20 20 20 20 20 20 20 20 20 20 20 19 19 19 20
25 25 24 23 23 23 23 23 23 23 23 23 24 23 23 22 22 22 22 23 23 22 22 22 22 22 22 21 21 21 21 21 20 20 21 20 20 20 20 20 19 19 19 20
26 26 26 24 24 24 25 24 23 23 24 24 24 24 23 23 23 23 23 23 23 23 23 23 23 23 23 23 22 22 22 22 21 21 21 21 21 21 20 20 20 20 20 20
27 27 26 25 24 24 25 24 23 23 24 24 24 24 23 23 24 24 24 24 24 24 24 24 24 24 24 23 23 22 23 23 22 22 22 22 22 22 21 21 21 20 20 20
27 27 26 25 26 25 26 25 25 24 24 24 24 25 25 25 25 26 25 25 26 25 25 25 25 24 24 24 24 23 23 23 23 23 22 22 22 22 22 21 21 20 20 20
26 26 25 25 26 26 26 27 26 26 25 25 25 26 26 26 26 26 26 26 26 26 26 26 25 25 25 24 24 24 24 23 23 23 22 22 22 22 22 22 21 21 22 21
26 25 25 26 26 27 27 28 28 28 27 27 27 28 28 28 28 28 27 27 26 27 26 26 26 26 25 25 24 24 24 23 23 23 23 22 22 22 22 22 22 22 22 22
26 25 25 25 26 27 28 29 28 28 29 29 28 28 28 28 28 28 28 28 28 28 27 27 26 26 26 26 26 25 25 24 24 24 24 23 23 23 23 24 23 23 23 23
26 26 27 26 26 27 27 29 29 28 28 29 28 27 27 28 28 29 29 29 29 29 29 29 28 28 28 28 27 26 26 25 25 25 25 24 24 24 24 25 25 25 24 24
28 28 29 28 28 28 28 28 29 29 28 28 28 28 28 28 29 29 30 30 30 30 30 30 29 29 29 29 28 28 27 26 26 26 26 25 25 25 25 25 25 25 25 25
29 29 29 29 29 28 28 28 28 28 28 28 27 27 28 29 29 29 29 29 30 31 31 30 30 30 30 30 29 29 28 28 28 27 27 26 26 26 26 26 25 25 26 26
29 29 29 28 28 28 27 27 27 28 28 28 27 27 28 29 29 28 28 28 29 29 30 30 30 30 30 31 30 30 29 29 28 28 28 27 27 27 27 27 27 27 26 27
28 28 28 27 27 27 27 26 27 28 28 28 28 28 29 29 29 29 29 29 29 28 29 29 29 29 29 30 31 30 30 29 29 28 28 28 28 28 27 28 28 28 27 27
27 27 26 26 26 27 27 27 27 27 27 28 28 29 30 29 30 30 29 29 29 29 29 30 29 29 30 30 31 30 30 30 29 29 29 29 29 29 28 28 29 28 28 28
27 26 25 25 26 26 27 27 27 27 27 27 28 29 30 30 30 30 30 30 30 30 30 30 30 30 30 31 31 31 31 31 30 30 29 29 29 29 29 29 29 29 29 29
26 26 26 25 26 26 26 27 27 28 28 29 29 29 30 30 30 30 30 30 30 31 31 31 31 31 31 31 31 32 32 31 31 31 30 30 30 30 30 30 30 30 30 30
25 26 26 26 26 26 27 28 29 29 29 29 29 30 30 30 30 31 31 31 31 31 31 31 32 32 32 31 32 32 32 32 32 32 31 31 31 31 30 31 30 30 30 29
26 26 27 28 27 27 27 28 29 29 29 29 29 29 29 30 30 31 32 32 32 32 32 32 32 32 31 31 31 31 31 32 32 32 32 31 31 31 31 30 30 30 30 29
26 26 27 27 27 27 28 29 29 29 29 29 29 29 29 29 30 31 31 31 31 32 31 32 32 32 31 31 31 31 31 32 31 31 31 31 31 31 31 30 30 30 30 30
26 26 27 27 27 27 28 29 29 29 29 28 28 29 29 30 30 31 31 31 32 32 32 32 32 31 31 31 31 31 31 30 30 31 31 31 31 31 31 31 31 31 31 31
27 27 26 27 27 28 28 29 29 29 29 28 29 29 30 30 30 31 32 32 32 32 33 33 32 32 32 31 31 31 30 30 30 30 30 30 31 31 31 31 31 31 31 31
28 28 28 27 27 27 28 27 27 28 29 29 30 30 31 31 31 31 32 32 32 33 33 32 32 32 32 31 31 30 30 31 30 30 31 31 31 31 31 31 31 31 31 31
29 29 28 28 28 28 27 27 28 28 29 29 29 30 30 30 31 31 32 32 32 31 31 31 31 31 30 30 31 31 31 31 31 32 32 32 32 32 32 32 32 31 31 32
29 29 28 28 27 27 28 28 28 28 29 30 30 30 31 31 31 31 31 31 30 30 30 30 30 30 31 32 32 32 31 31 32 32 32 33 33 33 33 32 32 32 32 32
Wind_Direction
256 258 259 260 259 257 260 264 268 271 271 274 276 280 280 282 283 285 286 288 290 292 294 295 296 295 294 294 293 294 294 292 289 286 287 288 289 289 287 284 282 281 279 278
255 257 260 260 260 258 259 263 266 269 271 273 274 277 279 282 284 283 285 286 288 290 293 294 294 294 293 294 294 293 293 291 289 287 286 286 286 288 288 285 283 280 278 278
255 255 258 259 261 261 262 263 265 268 270 273 275 276 279 281 280 280 283 286 286 289 293 292 291 290 290 290 292 293 292 292 290 287 284 285 285 286 286 284 281 278 276 277
258 256 258 262 262 261 262 263 265 267 268 269 272 275 276 279 279 279 281 282 284 286 290 290 289 288 287 288 290 291 292 292 290 289 285 283 284 285 285 284 280 277 275 276
259 259 259 259 262 264 263 264 265 266 268 269 270 273 275 276 279 282 281 281 281 283 286 289 289 289 288 289 289 290 291 291 290 289 287 285 285 285 285 284 281 277 275 277
260 261 260 260 262 263 264 263 264 266 268 270 271 273 273 273 275 277 277 278 277 279 282 285 287 288 288 288 288 289 289 289 289 288 287 286 285 286 284 282 281 279 277 277
259 262 263 262 263 264 264 264 265 266 267 270 271 272 272 271 273 275 276 276 277 278 281 282 284 286 286 287 288 289 289 288 287 287 287 286 285 286 284 282 281 281 280 278
261 263 266 266 266 266 266 266 266 267 268 270 272 273 273 273 274 275 275 276 276 278 280 281 282 283 284 284 285 287 287 287 286 286 287 286 284 284 283 283 282 281 282 281
263 264 266 266 268 267 266 266 266 266 268 271 272 273 274 275 275 275 276 276 277 277 278 279 280 281 283 284 284 285 285 285 284 284 284 285 283 281 280 281 281 281 281 280
266 265 266 266 267 267 265 266 266 267 269 270 272 273 274 274 274 275 276 276 277 277 276 277 277 278 280 282 282 283 283 283 283 283 283 284 284 281 279 279 280 281 280 280
268 266 267 268 268 267 265 265 265 268 271 272 273 275 274 272 271 272 274 275 277 277 277 277 277 277 279 280 280 281 282 281 281 282 282 282 282 281 280 278 278 279 279 280
267 267 265 265 267 266 267 265 264 265 267 269 270 272 273 272 270 271 272 273 274 276 277 278 277 278 279 280 280 280 280 280 280 280 280 279 279 280 280 279 278 278 277 279
266 265 265 265 266 267 268 267 265 265 266 267 268 270 271 272 270 270 271 272 273 275 277 277 277 277 278 278 279 278 278 278 279 279 278 277 279 279 279 279 278 278 277 278
266 266 267 267 268 268 268 268 268 266 268 269 269 270 271 272 272 271 272 273 274 276 277 277 277 277 277 277 277 277 277 277 278 278 277 276 277 278 277 277 278 279 279 279
267 267 268 267 266 266 267 267 266 266 267 268 269 270 271 272 272 274 275 275 276 277 278 278 277 276 275 275 275 276 276 276 277 276 276 276 276 277 276 276 277 278 278 279
266 268 268 268 267 267 268 268 268 268 267 268 269 270 272 272 272 274 276 276 276 276 277 278 277 276 275 274 274 274 275 276 275 275 275 276 275 276 276 275 276 277 277 277
266 267 268 267 266 266 267 269 269 270 270 271 271 270 270 271 272 273 274 275 276 277 277 278 278 277 275 274 273 273 273 274 274 274 276 276 275 275 275 275 276 276 277 277
266 267 268 267 267 267 268 268 269 271 271 272 273 272 271 271 272 272 273 274 276 277 278 278 277 278 276 274 273 272 272 272 272 273 274 275 275 274 275 276 276 276 277 277
267 266 266 266 267 268 269 270 272 273 274 273 274 273 272 271 271 272 274 275 276 277 277 278 278 279 277 274 272 271 272 271 271 272 273 273 273 274 275 276 278 277 276 276
269 267 266 268 269 269 269 270 273 274 274 274 275 275 274 272 272 272 272 273 274 276 277 278 279 279 278 275 273 272 271 271 271 272 272 272 272 273 274 276 277 277 276 276
268 268 267 269 269 270 271 272 273 274 274 274 274 274 274 274 273 273 273 273 273 276 277 278 279 279 278 276 275 273 271 271 270 270 271 272 272 273 273 274 276 277 276 276
267 268 269 269 269 270 271 272 274 275 275 274 274 275 276 275 274 274 274 274 275 276 277 278 279 279 277 275 275 274 272 270 270 270 270 271 272 273 273 274 276 277 277 277
269 270 270 270 270 272 273 273 274 274 274 274 275 277 277 277 277 276 274 275 276 277 277 278 279 278 277 274 274 274 273 272 271 271 270 271 272 272 273 274 276 277 277 277
272 272 272 271 271 273 274 274 273 272 272 275 277 278 278 278 278 277 276 276 277 278 278 278 278 277 276 274 273 273 272 272 271 271 271 271 272 272 272 274 277 278 278 278
275 273 273 272 272 273 273 273 272 272 274 276 278 279 279 280 279 277 277 278 278 279 279 278 278 277 275 274 273 272 271 271 271 270 270 271 272 273 275 276 278 279 280 280
274 273 272 272 273 273 272 271 272 274 275 277 278 280 280 281 281 282 281 280 279 279 278 279 277 276 275 274 273 272 271 270 270 270 270 271 273 274 276 276 277 278 280 280
273 272 272 272 274 274 274 274 275 275 275 276 277 278 279 280 281 282 283 282 280 279 279 277 276 276 276 275 274 272 269 269 270 271 272 273 274 275 276 275 276 278 279 280
Height
5801 5801 5802 5802 5803 5803 5803 5803 5804 5805 5805 5805 5804 5804 5804 5803 5802 5801 5800 5800 5798 5797 5795 5794 5792 5790 5788 5787 5785 5784 5782 5781 5779 5777 5776 5774 5773 5772 5770 5769 5768 5767 5766 5765
5795 5795 5795 5796 5797 5797 5797 5797 5798 5798 5799 5799 5799 5798 5798 5797 5797 5796 5795 5794 5793 5791 5790 5789 5787 5785 5783 5782 5781 5779 5777 5775 5774 5772 5771 5769 5768 5766 5765 5764 5763 5762 5761 5760
5788 5789 5789 5790 5791 5791 5791 5791 5792 5792 5793 5793 5792 5792 5792 5791 5791 5790 5789 5788 5787 5786 5785 5784 5782 5780 5778 5777 5775 5773 5772 5770 5768 5767 5765 5764 5762 5761 5760 5758 5757 5756 5755 5754
5781 5782 5782 5786 5784 5784 5784 5785 5785 5785 5786 5786 5786 5786 5786 5785 5785 5784 5783 5782 5781 5780 5779 5778 5776 5774 5773 5771 5769 5768 5766 5764 5763 5761 5759 5758 5757 5755 5754 5752 5751 5750 5750 5749
5773 5774 5775 5777 5777 5777 5777 5778 5778 5778 5779 5779 5779 5779 5779 5778 5778 5777 5777 5776 5775 5774 5773 5771 5770 5768 5766 5765 5763 5761 5760 5758 5756 5755 5753 5752 5750 5749 5748 5747 5746 5745 5744 5743
5766 5766 5767 5771 5770 5770 5771 5770 5771 5771 5771 5772 5772 5772 5773 5772 5772 5771 5770 5768 5768 5767 5766 5765 5763 5761 5760 5758 5756 5755 5753 5752 5750 5749 5747 5746 5744 5743 5742 5741 5740 5739 5738 5737
5759 5758 5760 5762 5762 5762 5763 5764 5764 5764 5764 5764 5764 5765 5765 5764 5764 5763 5763 5762 5761 5760 5759 5758 5756 5755 5753 5751 5750 5748 5747 5745 5744 5742 5741 5739 5738 5737 5735 5734 5734 5733 5732 5731
5751 5751 5755 5754 5754 5754 5755 5755 5756 5756 5756 5756 5756 5756 5756 5756 5755 5755 5755 5754 5753 5752 5751 5750 5749 5747 5746 5744 5743 5742 5740 5739 5737 5736 5734 5732 5731 5730 5729 5728 5727 5727 5726 5725
5744 5746 5745 5745 5745 5745 5746 5747 5747 5747 5748 5748 5747 5748 5748 5748 5747 5747 5746 5746 5745 5744 5743 5742 5741 5740 5738 5737 5736 5735 5733 5732 5730 5729 5728 5726 5724 5723 5722 5721 5721 5720 5719 5718
5735 5737 5737 5737 5737 5737 5737 5738 5738 5738 5739 5739 5739 5739 5739 5739 5739 5738 5738 5737 5736 5736 5735 5734 5733 5732 5731 5730 5729 5727 5726 5725 5723 5722 5721 5719 5718 5716 5715 5715 5714 5713 5712 5712
5727 5728 5728 5729 5728 5729 5728 5729 5729 5730 5730 5730 5730 5730 5730 5730 5729 5729 5729 5728 5728 5727 5726 5726 5725 5724 5723 5722 5721 5720 5719 5717 5716 5715 5713 5712 5711 5710 5708 5708 5706 5706 5705 5704
5719 5720 5719 5720 5720 5719 5719 5719 5720 5720 5721 5721 5721 5721 5721 5721 5720 5720 5720 5719 5719 5718 5717 5717 5716 5716 5715 5714 5712 5711 5710 5709 5708 5707 5706 5704 5703 5702 5701 5700 5699 5698 5697 5696
5710 5710 5710 5711 5711 5711 5711 5711 5711 5711 5711 5712 5712 5712 5712 5712 5711 5711 5710 5710 5710 5709 5708 5708 5707 5706 5706 5704 5703 5703 5702 5701 5700 5699 5697 5696 5695 5694 5693 5692 5691 5690 5689 5688
5701 5701 5702 5702 5703 5703 5702 5702 5702 5703 5703 5703 5703 5703 5703 5702 5702 5702 5701 5701 5700 5699 5699 5698 5697 5697 5696 5695 5694 5693 5693 5692 5691 5690 5689 5688 5687 5686 5685 5684 5683 5682 5681 5680
5692 5692 5693 5693 5694 5694 5694 5694 5694 5694 5694 5694 5694 5694 5694 5693 5693 5693 5692 5691 5690 5690 5689 5688 5687 5687 5686 5685 5684 5684 5683 5682 5681 5681 5680 5679 5678 5677 5676 5675 5675 5674 5672 5671
5683 5683 5683 5684 5684 5685 5685 5685 5685 5686 5686 5685 5685 5685 5684 5684 5684 5683 5682 5682 5681 5680 5680 5679 5678 5677 5676 5675 5674 5674 5673 5673 5672 5671 5670 5669 5668 5668 5667 5666 5665 5664 5663 5662
5674 5674 5674 5675 5676 5676 5676 5676 5676 5677 5677 5676 5676 5675 5675 5675 5674 5674 5673 5673 5672 5671 5670 5669 5668 5667 5665 5665 5664 5664 5663 5663 5662 5662 5661 5660 5659 5658 5657 5657 5656 5655 5654 5652
5665 5666 5666 5666 5666 5667 5667 5667 5668 5668 5667 5667 5666 5666 5665 5665 5665 5664 5664 5663 5662 5661 5660 5659 5658 5656 5655 5654 5654 5654 5653 5653 5652 5652 5651 5650 5649 5648 5648 5647 5646 5645 5644 5643
5656 5657 5657 5657 5658 5658 5658 5658 5658 5658 5658 5657 5656 5656 5655 5655 5655 5654 5654 5653 5652 5651 5650 5649 5648 5646 5645 5644 5643 5643 5643 5642 5642 5642 5641 5640 5639 5638 5638 5637 5636 5635 5634 5633
5647 5648 5648 5649 5649 5649 5649 5649 5649 5648 5648 5647 5647 5646 5646 5645 5645 5644 5644 5643 5642 5641 5640 5639 5637 5636 5635 5634 5633 5632 5632 5632 5631 5631 5631 5630 5629 5629 5628 5627 5626 5625 5624 5623
5638 5639 5639 5639 5640 5640 5639 5639 5639 5638 5638 5637 5637 5636 5636 5635 5635 5634 5633 5633 5632 5630 5629 5628 5627 5625 5624 5623 5622 5622 5621 5621 5621 5621 5620 5620 5619 5619 5618 5617 5616 5615 5615 5614
5630 5630 5630 5630 5630 5630 5630 5629 5629 5628 5628 5628 5627 5626 5626 5625 5624 5623 5622 5622 5621 5620 5619 5617 5616 5615 5614 5613 5612 5612 5611 5611 5610 5610 5610 5610 5609 5609 5608 5607 5606 5605 5604 5603
5621 5621 5621 5620 5620 5620 5619 5619 5619 5618 5618 5618 5617 5617 5616 5615 5614 5613 5612 5611 5610 5609 5608 5607 5605 5604 5603 5603 5602 5601 5601 5600 5600 5600 5600 5599 5599 5598 5598 5597 5596 5595 5594 5593
5612 5612 5611 5611 5610 5610 5609 5609 5608 5608 5608 5608 5607 5606 5606 5605 5604 5603 5602 5601 5600 5598 5597 5596 5595 5593 5593 5592 5592 5591 5591 5590 5590 5590 5589 5589 5588 5588 5587 5587 5586 5585 5584 5583
5603 5602 5602 5601 5601 5600 5600 5599 5599 5599 5598 5598 5597 5596 5595 5594 5593 5592 5591 5590 5588 5587 5586 5585 5583 5583 5582 5581 5581 5581 5580 5580 5580 5580 5579 5579 5578 5578 5577 5576 5576 5575 5573 5572
5593 5593 5592 5592 5591 5590 5590 5590 5589 5589 5589 5588 5587 5586 5585 5584 5583 5581 5580 5578 5577 5576 5575 5574 5573 5572 5571 5571 5570 5570 5569 5569 5569 5569 5568 5568 5568 5567 5567 5566 5565 5564 5563 5562
5583 5583 5583 5582 5582 5581 5581 5580 5580 5579 5579 5578 5578 5576 5575 5573 5572 5571 5569 5568 5566 5565 5564 5563 5562 5561 5560 5560 5559 5558 5558 5558 5558 5558 5557 5557 5557 5556 5555 5555 5554 5553 5552 5551